星链-30981 (STARLINK-30981 )

导读 | 星芒AI

STARLINK-30981 是 SpaceX 星链(Starlink)卫星互联网项目中的第 30981 颗卫星。该卫星属于星链计划的第三代卫星(Gen3),旨在提供更高速、低延迟的全球互联网服务。它运行在近地轨道,配备先进通信设备和激光链路,以增强卫星间通信能力。该计划致力于为全球用户提供稳定的宽带连接,尤其关注偏远和网络基础设施薄弱地区。STARLINK-30981 的发射和运行进一步推动了星链网络的扩展与性能优化。

基本信息
目录编号:
58494
目录名称:
STARLINK-30981
国际标识:
2023-186X
轨道中心:
EARTH
卫星名称:
星链-30981
卫星全名:
星链-30981 (STARLINK-30981 )
卫星状态:
在轨 (已飞行698 天)
发射日期:
2023-12-03 UTC
国别 :
美国 (US)
星等 :
--
轨道信息
数据来源 国际轨道数据
星历时间: 2025-10-31T01:03:41+0800
20小时前
查看轨道信息
半长轴: 6937.209km
偏心率: 0.0001279
轨道倾角: 43.003°
近地点辐角 278.167°
升交点赤经 53.343°
平近点角 81.902°
近地点: 558.186km
远地点: 559.962km
周期: 95.838分钟
每日圈数: 15.025387
详细信息
固有亮度:
5
最大亮度:
0.3
卫星平台:
Starlink v2.0 mini
覆盖范围:
全球
运营商:
太空探索技术公司
运营商所在国:
美国
制造商(研发单位):
太空探索技术公司
制造商所在国:
美国
使用方式:
暂无
卫星简介
星链(Starlink)计划是由太空探索技术公司(SpaceX)提出的一个巨型低轨卫星互联网星座项目,计划在2019年至2024年间在太空搭建由约1.2万颗卫星组成的“星链”网络,其中1584颗将部署在地球上空550千米处的近地轨道,并从2020年开始工作。该卫星仍在工作。
2D轨道图
3D轨道图
轨道高度分析图
轨道倾角分析图
轨道综合分析图
查看轨道综合分析图